owner,sensor,date,latitude,longitude,vertical_datum,wind_speed,wind_to_direction,wind_speed_of_gust,qcFlag 
TCOON,ioos:station:TCOON:006:1,2008-09-01T00:00:00Z,27.8217,-97.2040,0.0,2.1,87.0,2.8,'11111222,11111222,11111222' 
TCOON,ioos:station:TCOON:006:1,2008-09-01T02:00:00Z,27.8217,-97.2040,0.0,0.6,70.0,1.1,'11111222,11111222,11111222' 
TCOON,ioos:station:TCOON:006:1,2008-09-01T03:00:00Z,27.8217,-97.2040,0.0,1.0,55.0,1.5,'11111222,11111222,11111222' 
TCOON,ioos:station:TCOON:006:1,2008-09-01T04:00:00Z,27.8217,-97.2040,0.0,0.7,69.0,0.9,'11111222,11111222,11111222' 
TCOON,ioos:station:TCOON:006:1,2008-09-01T05:00:00Z,27.8217,-97.2040,0.0,0.4,33.0,1.1,'11111222,11111222,11111222' 
TCOON,ioos:station:TCOON:006:1,2008-09-01T06:00:00Z,27.8217,-97.2040,0.0,1.1,352.0,1.3,'11111222,11111222,11111222' 
TCOON,ioos:station:TCOON:006:1,2008-09-01T07:00:00Z,27.8217,-97.2040,0.0,1.7,333.0,1.9,'11111222,11111222,11111222' 
TCOON,ioos:station:TCOON:006:1,2008-09-01T08:00:00Z,27.8217,-97.2040,0.0,1.8,324.0,2.4,'11111222,11111222,11111222' 
TCOON,ioos:station:TCOON:006:1,2008-09-01T09:00:00Z,27.8217,-97.2040,0.0,1.9,332.0,2.8,'11111222,11111222,11111222' 
TCOON,ioos:station:TCOON:006:1,2008-09-01T10:00:00Z,27.8217,-97.2040,0.0,2.4,298.0,3.5,'11111222,11111222,11111222' 
TCOON,ioos:station:TCOON:006:1,2008-09-01T11:00:00Z,27.8217,-97.2040,0.0,2.4,299.0,2.9,'11111222,11111222,11111222' 
TCOON,ioos:station:TCOON:006:1,2008-09-01T12:00:00Z,27.8217,-97.2040,0.0,3.7,297.0,5.2,'11111222,11111222,11111222' 
TCOON,ioos:station:TCOON:006:1,2008-09-01T13:00:00Z,27.8217,-97.2040,0.0,2.8,297.0,4.3,'11111222,11111222,11111222' 
TCOON,ioos:station:TCOON:006:1,2008-09-01T14:00:00Z,27.8217,-97.2040,0.0,3.1,298.0,6.2,'11111222,11111222,11111222' 
TCOON,ioos:station:TCOON:006:1,2008-09-01T15:00:00Z,27.8217,-97.2040,0.0,4.9,282.0,7.0,'11111222,11111222,11111222' 
TCOON,ioos:station:TCOON:006:1,2008-09-01T16:00:00Z,27.8217,-97.2040,0.0,2.5,307.0,6.4,'11111222,11111222,11111222' 
TCOON,ioos:station:TCOON:006:1,2008-09-01T17:00:00Z,27.8217,-97.2040,0.0,3.4,295.0,6.6,'11111222,11111222,11111222' 
TCOON,ioos:station:TCOON:006:1,2008-09-01T18:00:00Z,27.8217,-97.2040,0.0,1.8,2.0,5.7,'11111222,11111222,11111222' 
TCOON,ioos:station:TCOON:006:1,2008-09-01T19:00:00Z,27.8217,-97.2040,0.0,1.5,357.0,5.1,'11111222,11111222,11111222' 
TCOON,ioos:station:TCOON:006:1,2008-09-01T20:00:00Z,27.8217,-97.2040,0.0,2.6,310.0,5.1,'11111222,11111222,11111222' 
TCOON,ioos:station:TCOON:006:1,2008-09-01T21:00:00Z,27.8217,-97.2040,0.0,4.0,337.0,5.0,'11111222,11111222,11111222' 
TCOON,ioos:station:TCOON:006:1,2008-09-01T22:00:00Z,27.8217,-97.2040,0.0,2.4,331.0,4.9,'11111222,11111222,11111222' 
TCOON,ioos:station:TCOON:006:1,2008-09-01T23:00:00Z,27.8217,-97.2040,0.0,1.3,307.0,2.7,'11111222,11111222,11111222' 
TCOON,ioos:station:TCOON:006:1,2008-09-02T00:00:00Z,27.8217,-97.2040,0.0,1.7,297.0,2.5,'11111222,11111222,11111222' 
TCOON,ioos:station:TCOON:006:1,2008-09-02T01:00:00Z,27.8217,-97.2040,0.0,1.2,282.0,2.4,'11111222,11111222,11111222' 
TCOON,ioos:station:TCOON:006:1,2008-09-02T02:00:00Z,27.8217,-97.2040,0.0,1.5,258.0,2.0,'11111222,11111222,11111222' 
TCOON,ioos:station:TCOON:006:1,2008-09-02T03:00:00Z,27.8217,-97.2040,0.0,2.5,213.0,2.9,'11111222,11111222,11111222' 
TCOON,ioos:station:TCOON:006:1,2008-09-02T04:00:00Z,27.8217,-97.2040,0.0,5.1,219.0,5.8,'11111222,11111222,11111222' 
TCOON,ioos:station:TCOON:006:1,2008-09-02T05:00:00Z,27.8217,-97.2040,0.0,4.8,226.0,6.0,'11111222,11111222,11111222' 
TCOON,ioos:station:TCOON:006:1,2008-09-02T06:00:00Z,27.8217,-97.2040,0.0,1.2,308.0,1.7,'11111222,11111222,11111222' 
TCOON,ioos:station:TCOON:006:1,2008-09-02T07:00:00Z,27.8217,-97.2040,0.0,1.4,327.0,3.1,'11111222,11111222,11111222' 
TCOON,ioos:station:TCOON:006:1,2008-09-02T08:00:00Z,27.8217,-97.2040,0.0,1.8,327.0,2.3,'11111222,11111222,11111222' 
TCOON,ioos:station:TCOON:006:1,2008-09-02T09:00:00Z,27.8217,-97.2040,0.0,2.9,248.0,3.6,'11111222,11111222,11111222' 
TCOON,ioos:station:TCOON:006:1,2008-09-02T10:00:00Z,27.8217,-97.2040,0.0,4.4,218.0,4.7,'11111222,11111222,11111222' 
TCOON,ioos:station:TCOON:006:1,2008-09-02T11:00:00Z,27.8217,-97.2040,0.0,5.3,235.0,5.9,'11111222,11111222,11111222' 
TCOON,ioos:station:TCOON:006:1,2008-09-02T12:00:00Z,27.8217,-97.2040,0.0,4.1,250.0,5.1,'11111222,11111222,11111222' 
TCOON,ioos:station:TCOON:006:1,2008-09-02T13:00:00Z,27.8217,-97.2040,0.0,2.4,267.0,3.7,'11111222,11111222,11111222' 
TCOON,ioos:station:TCOON:006:1,2008-09-02T14:00:00Z,27.8217,-97.2040,0.0,1.9,260.0,2.9,'11111222,11111222,11111222' 
TCOON,ioos:station:TCOON:006:1,2008-09-02T15:00:00Z,27.8217,-97.2040,0.0,3.4,242.0,4.1,'11111222,11111222,11111222' 
TCOON,ioos:station:TCOON:006:1,2008-09-02T16:00:00Z,27.8217,-97.2040,0.0,3.5,238.0,3.8,'11111222,11111222,11111222' 
TCOON,ioos:station:TCOON:006:1,2008-09-02T17:00:00Z,27.8217,-97.2040,0.0,2.4,226.0,3.1,'11111222,11111222,11111222' 
TCOON,ioos:station:TCOON:006:1,2008-09-02T18:00:00Z,27.8217,-97.2040,0.0,2.3,217.0,3.1,'11111222,11111222,11111222' 
TCOON,ioos:station:TCOON:006:1,2008-09-02T19:00:00Z,27.8217,-97.2040,0.0,3.7,193.0,5.1,'11111222,11111222,11111222' 
TCOON,ioos:station:TCOON:006:1,2008-09-02T20:00:00Z,27.8217,-97.2040,0.0,5.3,182.0,5.9,'11111222,11111222,11111222' 
TCOON,ioos:station:TCOON:006:1,2008-09-02T21:00:00Z,27.8217,-97.2040,0.0,7.4,167.0,8.2,'11111222,11111222,11111222' 
TCOON,ioos:station:TCOON:006:1,2008-09-02T22:00:00Z,27.8217,-97.2040,0.0,7.2,172.0,8.8,'11111222,11111222,11111222' 
TCOON,ioos:station:TCOON:006:1,2008-09-02T23:00:00Z,27.8217,-97.2040,0.0,7.4,174.0,8.7,'11111222,11111222,11111222' 
TCOON,ioos:station:TCOON:006:1,2008-09-03T00:00:00Z,27.8217,-97.2040,0.0,7.0,180.0,7.5,'11111222,11111222,11111222' 
TCOON,ioos:station:TCOON:006:1,2008-09-03T01:00:00Z,27.8217,-97.2040,0.0,7.7,183.0,8.8,'11111222,11111222,11111222' 
TCOON,ioos:station:TCOON:006:1,2008-09-03T02:00:00Z,27.8217,-97.2040,0.0,6.4,190.0,7.9,'11111222,11111222,11111222' 
TCOON,ioos:station:TCOON:006:1,2008-09-03T03:00:00Z,27.8217,-97.2040,0.0,7.1,187.0,9.4,'11111222,11111222,11111222' 
TCOON,ioos:station:TCOON:006:1,2008-09-03T04:00:00Z,27.8217,-97.2040,0.0,7.3,192.0,8.9,'11111222,11111222,11111222' 
TCOON,ioos:station:TCOON:006:1,2008-09-03T05:00:00Z,27.8217,-97.2040,0.0,6.9,190.0,8.5,'11111222,11111222,11111222' 
TCOON,ioos:station:TCOON:006:1,2008-09-03T06:00:00Z,27.8217,-97.2040,0.0,8.3,205.0,11.1,'11111222,11111222,11111222' 
TCOON,ioos:station:TCOON:006:1,2008-09-03T07:00:00Z,27.8217,-97.2040,0.0,8.0,213.0,10.6,'11111222,11111222,11111222' 
TCOON,ioos:station:TCOON:006:1,2008-09-03T08:00:00Z,27.8217,-97.2040,0.0,7.9,217.0,9.3,'11111222,11111222,11111222' 
TCOON,ioos:station:TCOON:006:1,2008-09-03T09:00:00Z,27.8217,-97.2040,0.0,8.6,223.0,9.9,'11111222,11111222,11111222' 
TCOON,ioos:station:TCOON:006:1,2008-09-03T10:00:00Z,27.8217,-97.2040,0.0,7.0,228.0,8.4,'11111222,11111222,11111222' 
TCOON,ioos:station:TCOON:006:1,2008-09-03T11:00:00Z,27.8217,-97.2040,0.0,6.3,241.0,8.0,'11111222,11111222,11111222' 
TCOON,ioos:station:TCOON:006:1,2008-09-03T12:00:00Z,27.8217,-97.2040,0.0,6.1,246.0,7.4,'11111222,11111222,11111222' 
TCOON,ioos:station:TCOON:006:1,2008-09-03T13:00:00Z,27.8217,-97.2040,0.0,3.5,262.0,5.4,'11111222,11111222,11111222' 
TCOON,ioos:station:TCOON:006:1,2008-09-03T14:00:00Z,27.8217,-97.2040,0.0,3.7,247.0,4.6,'11111222,11111222,11111222' 
TCOON,ioos:station:TCOON:006:1,2008-09-03T15:00:00Z,27.8217,-97.2040,0.0,3.9,240.0,5.0,'11111222,11111222,11111222' 
TCOON,ioos:station:TCOON:006:1,2008-09-03T16:00:00Z,27.8217,-97.2040,0.0,2.1,242.0,2.7,'11111222,11111222,11111222' 
TCOON,ioos:station:TCOON:006:1,2008-09-03T17:00:00Z,27.8217,-97.2040,0.0,2.3,230.0,2.9,'11111222,11111222,11111222' 
TCOON,ioos:station:TCOON:006:1,2008-09-03T18:00:00Z,27.8217,-97.2040,0.0,3.7,186.0,4.8,'11111222,11111222,11111222' 
TCOON,ioos:station:TCOON:006:1,2008-09-03T19:00:00Z,27.8217,-97.2040,0.0,3.9,142.0,5.5,'11111222,11111222,11111222' 
TCOON,ioos:station:TCOON:006:1,2008-09-03T20:00:00Z,27.8217,-97.2040,0.0,4.3,134.0,5.5,'11111222,11111222,11111222' 
TCOON,ioos:station:TCOON:006:1,2008-09-04T08:00:00Z,27.8217,-97.2040,0.0,1.3,10.0,4.1,'11111222,11111222,11111222' 
TCOON,ioos:station:TCOON:006:1,2008-09-04T09:00:00Z,27.8217,-97.2040,0.0,1.6,13.0,4.1,'11111222,11111222,11111222' 
TCOON,ioos:station:TCOON:006:1,2008-09-04T10:00:00Z,27.8217,-97.2040,0.0,2.4,23.0,4.0,'11111222,11111222,11111222' 
TCOON,ioos:station:TCOON:006:1,2008-09-04T11:00:00Z,27.8217,-97.2040,0.0,1.7,19.0,3.2,'11111222,11111222,11111222' 
TCOON,ioos:station:TCOON:006:1,2008-09-04T12:00:00Z,27.8217,-97.2040,0.0,0.9,7.0,2.5,'11111222,11111222,11111222' 
TCOON,ioos:station:TCOON:006:1,2008-09-04T15:00:00Z,27.8217,-97.2040,0.0,2.4,17.0,4.6,'11111222,11111222,11111222' 
TCOON,ioos:station:TCOON:006:1,2008-09-04T16:00:00Z,27.8217,-97.2040,0.0,3.5,47.0,5.8,'11111222,11111222,11111222' 
TCOON,ioos:station:TCOON:006:1,2008-09-04T17:00:00Z,27.8217,-97.2040,0.0,3.6,65.0,5.6,'11111222,11111222,11111222' 
TCOON,ioos:station:TCOON:006:1,2008-09-04T18:00:00Z,27.8217,-97.2040,0.0,4.7,72.0,6.0,'11111222,11111222,11111222' 
TCOON,ioos:station:TCOON:006:1,2008-09-04T19:00:00Z,27.8217,-97.2040,0.0,4.1,74.0,5.3,'11111222,11111222,11111222' 
TCOON,ioos:station:TCOON:006:1,2008-09-05T03:00:00Z,27.8217,-97.2040,0.0,1.7,110.0,2.7,'11111222,11111222,11111222' 
TCOON,ioos:station:TCOON:006:1,2008-09-05T04:00:00Z,27.8217,-97.2040,0.0,3.2,155.0,4.0,'11111222,11111222,11111222' 
TCOON,ioos:station:TCOON:006:1,2008-09-05T05:00:00Z,27.8217,-97.2040,0.0,2.8,158.0,4.0,'11111222,11111222,11111222' 
TCOON,ioos:station:TCOON:006:1,2008-09-05T06:00:00Z,27.8217,-97.2040,0.0,3.0,174.0,3.9,'11111222,11111222,11111222' 
TCOON,ioos:station:TCOON:006:1,2008-09-05T07:00:00Z,27.8217,-97.2040,0.0,1.7,209.0,2.0,'11111222,11111222,11111222' 
TCOON,ioos:station:TCOON:006:1,2008-09-05T08:00:00Z,27.8217,-97.2040,0.0,1.8,236.0,2.4,'11111222,11111222,11111222' 
TCOON,ioos:station:TCOON:006:1,2008-09-05T09:00:00Z,27.8217,-97.2040,0.0,1.3,351.0,1.9,'11111222,11111222,11111222' 
TCOON,ioos:station:TCOON:006:1,2008-09-05T10:00:00Z,27.8217,-97.2040,0.0,1.1,2.0,2.7,'11111222,11111222,11111222' 
TCOON,ioos:station:TCOON:006:1,2008-09-05T11:00:00Z,27.8217,-97.2040,0.0,1.3,356.0,2.6,'11111222,11111222,11111222' 
TCOON,ioos:station:TCOON:006:1,2008-09-05T12:00:00Z,27.8217,-97.2040,0.0,1.0,357.0,1.9,'11111222,11111222,11111222' 
TCOON,ioos:station:TCOON:006:1,2008-09-05T13:00:00Z,27.8217,-97.2040,0.0,1.5,360.0,2.6,'11111222,11144222,11111222' 
TCOON,ioos:station:TCOON:006:1,2008-09-05T14:00:00Z,27.8217,-97.2040,0.0,2.6,58.0,3.4,'11111222,11111222,11111222' 
TCOON,ioos:station:TCOON:006:1,2008-09-05T15:00:00Z,27.8217,-97.2040,0.0,2.6,41.0,5.2,'11111222,11111222,11111222' 
TCOON,ioos:station:TCOON:006:1,2008-09-05T16:00:00Z,27.8217,-97.2040,0.0,2.9,66.0,4.5,'11111222,11111222,11111222' 
TCOON,ioos:station:TCOON:006:1,2008-09-05T17:00:00Z,27.8217,-97.2040,0.0,4.8,75.0,6.5,'11111222,11111222,11111222' 
TCOON,ioos:station:TCOON:006:1,2008-09-05T18:00:00Z,27.8217,-97.2040,0.0,4.2,75.0,5.9,'11111222,11111222,11111222' 
TCOON,ioos:station:TCOON:006:1,2008-09-05T19:00:00Z,27.8217,-97.2040,0.0,4.7,78.0,6.3,'11111222,11111222,11111222' 
TCOON,ioos:station:TCOON:006:1,2008-09-05T20:00:00Z,27.8217,-97.2040,0.0,5.2,89.0,6.5,'11111222,11111222,11111222' 
TCOON,ioos:station:TCOON:006:1,2008-09-05T21:00:00Z,27.8217,-97.2040,0.0,4.8,84.0,7.3,'11111222,11111222,11111222' 
TCOON,ioos:station:TCOON:006:1,2008-09-05T22:00:00Z,27.8217,-97.2040,0.0,5.0,95.0,6.9,'11111222,11111222,11111222' 
TCOON,ioos:station:TCOON:006:1,2008-09-05T23:00:00Z,27.8217,-97.2040,0.0,3.5,108.0,6.3,'11111222,11111222,11111222' 
TCOON,ioos:station:TCOON:006:1,2008-09-06T00:00:00Z,27.8217,-97.2040,0.0,4.4,102.0,5.9,'11111222,11111222,11111222' 
TCOON,ioos:station:TCOON:006:1,2008-09-06T01:00:00Z,27.8217,-97.2040,0.0,3.9,98.0,6.1,'11111222,11111222,11111222' 
TCOON,ioos:station:TCOON:006:1,2008-09-06T02:00:00Z,27.8217,-97.2040,0.0,4.4,99.0,6.5,'11111222,11111222,11111222' 
TCOON,ioos:station:TCOON:006:1,2008-09-06T03:00:00Z,27.8217,-97.2040,0.0,3.2,97.0,4.7,'11111222,11111222,11111222' 
TCOON,ioos:station:TCOON:006:1,2008-09-06T04:00:00Z,27.8217,-97.2040,0.0,2.7,95.0,4.6,'11111222,11111222,11111222' 
TCOON,ioos:station:TCOON:006:1,2008-09-06T05:00:00Z,27.8217,-97.2040,0.0,3.3,95.0,4.5,'11111222,11111222,11111222' 
TCOON,ioos:station:TCOON:006:1,2008-09-06T06:00:00Z,27.8217,-97.2040,0.0,3.1,85.0,4.7,'11111222,11111222,11111222' 
TCOON,ioos:station:TCOON:006:1,2008-09-06T07:00:00Z,27.8217,-97.2040,0.0,2.2,69.0,3.8,'11111222,11111222,11111222' 
TCOON,ioos:station:TCOON:006:1,2008-09-06T08:00:00Z,27.8217,-97.2040,0.0,2.8,79.0,3.7,'11111222,11111222,11111222' 
TCOON,ioos:station:TCOON:006:1,2008-09-06T09:00:00Z,27.8217,-97.2040,0.0,3.1,70.0,4.1,'11111222,11111222,11111222' 
TCOON,ioos:station:TCOON:006:1,2008-09-06T10:00:00Z,27.8217,-97.2040,0.0,3.1,69.0,5.2,'11111222,11111222,11111222' 
TCOON,ioos:station:TCOON:006:1,2008-09-06T11:00:00Z,27.8217,-97.2040,0.0,3.8,74.0,5.3,'11111222,11111222,11111222' 
TCOON,ioos:station:TCOON:006:1,2008-09-06T12:00:00Z,27.8217,-97.2040,0.0,4.6,55.0,5.6,'11111222,11111222,11111222' 
TCOON,ioos:station:TCOON:006:1,2008-09-06T13:00:00Z,27.8217,-97.2040,0.0,3.3,55.0,4.2,'11111222,11111222,11111222' 
TCOON,ioos:station:TCOON:006:1,2008-09-06T14:00:00Z,27.8217,-97.2040,0.0,3.4,57.0,4.8,'11111222,11111222,11111222' 
TCOON,ioos:station:TCOON:006:1,2008-09-06T15:00:00Z,27.8217,-97.2040,0.0,4.4,55.0,5.8,'11111222,11111222,11111222' 
TCOON,ioos:station:TCOON:006:1,2008-09-06T16:00:00Z,27.8217,-97.2040,0.0,3.8,55.0,6.0,'11111222,11111222,11111222' 
TCOON,ioos:station:TCOON:006:1,2008-09-06T17:00:00Z,27.8217,-97.2040,0.0,4.0,67.0,5.6,'11111222,11111222,11111222' 
TCOON,ioos:station:TCOON:006:1,2008-09-06T18:00:00Z,27.8217,-97.2040,0.0,5.0,71.0,7.0,'11111222,11111222,11111222' 
TCOON,ioos:station:TCOON:006:1,2008-09-06T19:00:00Z,27.8217,-97.2040,0.0,4.8,72.0,7.7,'11111222,11111222,11111222' 
TCOON,ioos:station:TCOON:006:1,2008-09-06T20:00:00Z,27.8217,-97.2040,0.0,4.5,74.0,6.2,'11111222,11111222,11111222' 
TCOON,ioos:station:TCOON:006:1,2008-09-06T21:00:00Z,27.8217,-97.2040,0.0,3.8,62.0,6.6,'11111222,11111222,11111222' 
TCOON,ioos:station:TCOON:006:1,2008-09-06T22:00:00Z,27.8217,-97.2040,0.0,4.6,87.0,6.0,'11111222,11111222,11111222' 
TCOON,ioos:station:TCOON:006:1,2008-09-06T23:00:00Z,27.8217,-97.2040,0.0,3.3,97.0,6.2,'11111222,11111222,11111222' 
TCOON,ioos:station:TCOON:006:1,2008-09-07T00:00:00Z,27.8217,-97.2040,0.0,4.0,92.0,5.7,'11111222,11111222,11111222' 
TCOON,ioos:station:TCOON:006:1,2008-09-07T01:00:00Z,27.8217,-97.2040,0.0,3.0,94.0,5.5,'11111222,11111222,11111222' 
TCOON,ioos:station:TCOON:006:1,2008-09-07T02:00:00Z,27.8217,-97.2040,0.0,3.3,96.0,5.0,'11111222,11111222,11111222' 
TCOON,ioos:station:TCOON:006:1,2008-09-07T03:00:00Z,27.8217,-97.2040,0.0,3.8,84.0,5.1,'11111222,11111222,11111222' 
TCOON,ioos:station:TCOON:006:1,2008-09-07T04:00:00Z,27.8217,-97.2040,0.0,3.1,96.0,5.2,'11111222,11111222,11111222' 
TCOON,ioos:station:TCOON:006:1,2008-09-07T05:00:00Z,27.8217,-97.2040,0.0,2.8,96.0,4.2,'11111222,11111222,11111222' 
TCOON,ioos:station:TCOON:006:1,2008-09-07T06:00:00Z,27.8217,-97.2040,0.0,2.7,71.0,4.9,'11111222,11111222,11111222' 
TCOON,ioos:station:TCOON:006:1,2008-09-07T07:00:00Z,27.8217,-97.2040,0.0,2.3,68.0,3.3,'11111222,11111222,11111222' 
TCOON,ioos:station:TCOON:006:1,2008-09-07T08:00:00Z,27.8217,-97.2040,0.0,2.2,76.0,3.5,'11111222,11111222,11111222' 
TCOON,ioos:station:TCOON:006:1,2008-09-07T09:00:00Z,27.8217,-97.2040,0.0,2.8,72.0,3.7,'11111222,11111222,11111222' 
TCOON,ioos:station:TCOON:006:1,2008-09-07T10:00:00Z,27.8217,-97.2040,0.0,1.9,54.0,3.3,'11111222,11111222,11111222' 
TCOON,ioos:station:TCOON:006:1,2008-09-07T11:00:00Z,27.8217,-97.2040,0.0,1.3,357.0,1.9,'11111222,11111222,11111222' 
TCOON,ioos:station:TCOON:006:1,2008-09-07T12:00:00Z,27.8217,-97.2040,0.0,0.7,18.0,2.6,'11111222,11111222,11111222' 
TCOON,ioos:station:TCOON:006:1,2008-09-07T13:00:00Z,27.8217,-97.2040,0.0,4.0,24.0,4.8,'11111222,11111222,11111222' 
TCOON,ioos:station:TCOON:006:1,2008-09-07T14:00:00Z,27.8217,-97.2040,0.0,3.8,27.0,4.5,'11111222,11111222,11111222' 
TCOON,ioos:station:TCOON:006:1,2008-09-07T15:00:00Z,27.8217,-97.2040,0.0,3.8,43.0,6.1,'11111222,11111222,11111222' 
TCOON,ioos:station:TCOON:006:1,2008-09-07T16:00:00Z,27.8217,-97.2040,0.0,5.7,60.0,8.4,'11111222,11111222,11111222' 
TCOON,ioos:station:TCOON:006:1,2008-09-07T17:00:00Z,27.8217,-97.2040,0.0,6.6,57.0,8.0,'11111222,11111222,11111222' 
TCOON,ioos:station:TCOON:006:1,2008-09-07T18:00:00Z,27.8217,-97.2040,0.0,4.5,63.0,7.4,'11111222,11111222,11111222' 
TCOON,ioos:station:TCOON:006:1,2008-09-07T19:00:00Z,27.8217,-97.2040,0.0,5.8,77.0,6.8,'11111222,11111222,11111222' 
TCOON,ioos:station:TCOON:006:1,2008-09-07T20:00:00Z,27.8217,-97.2040,0.0,4.9,81.0,5.7,'11111222,11111222,11111222' 
TCOON,ioos:station:TCOON:006:1,2008-09-07T21:00:00Z,27.8217,-97.2040,0.0,4.1,83.0,5.2,'11111222,11111222,11111222' 
TCOON,ioos:station:TCOON:006:1,2008-09-07T22:00:00Z,27.8217,-97.2040,0.0,2.9,91.0,4.7,'11111222,11111222,11111222' 
TCOON,ioos:station:TCOON:006:1,2008-09-07T23:00:00Z,27.8217,-97.2040,0.0,4.0,82.0,5.6,'11111222,11111222,11111222' 
TCOON,ioos:station:TCOON:006:1,2008-09-08T00:00:00Z,27.8217,-97.2040,0.0,3.3,81.0,4.9,'11111222,11111222,11111222' 
TCOON,ioos:station:TCOON:006:1,2008-09-08T01:00:00Z,27.8217,-97.2040,0.0,3.7,85.0,5.7,'11111222,11111222,11111222' 
TCOON,ioos:station:TCOON:006:1,2008-09-08T02:00:00Z,27.8217,-97.2040,0.0,3.6,72.0,5.0,'11111222,11111222,11111222' 
TCOON,ioos:station:TCOON:006:1,2008-09-08T03:00:00Z,27.8217,-97.2040,0.0,3.9,75.0,5.3,'11111222,11111222,11111222' 
TCOON,ioos:station:TCOON:006:1,2008-09-08T04:00:00Z,27.8217,-97.2040,0.0,4.0,98.0,6.3,'11111222,11111222,11111222' 
TCOON,ioos:station:TCOON:006:1,2008-09-08T05:00:00Z,27.8217,-97.2040,0.0,3.6,107.0,7.3,'11111222,11111222,11111222' 
TCOON,ioos:station:TCOON:006:1,2008-09-08T06:00:00Z,27.8217,-97.2040,0.0,3.7,124.0,5.4,'11111222,11111222,11111222' 
TCOON,ioos:station:TCOON:006:1,2008-09-08T07:00:00Z,27.8217,-97.2040,0.0,3.5,125.0,4.9,'11111222,11111222,11111222' 
TCOON,ioos:station:TCOON:006:1,2008-09-08T08:00:00Z,27.8217,-97.2040,0.0,1.8,134.0,3.7,'11111222,11111222,11111222' 
TCOON,ioos:station:TCOON:006:1,2008-09-08T09:00:00Z,27.8217,-97.2040,0.0,1.9,133.0,3.7,'11111222,11111222,11111222' 
TCOON,ioos:station:TCOON:006:1,2008-09-08T10:00:00Z,27.8217,-97.2040,0.0,2.6,107.0,4.3,'11111222,11111222,11111222' 
TCOON,ioos:station:TCOON:006:1,2008-09-08T11:00:00Z,27.8217,-97.2040,0.0,2.9,95.0,4.0,'11111222,11111222,11111222' 
TCOON,ioos:station:TCOON:006:1,2008-09-08T12:00:00Z,27.8217,-97.2040,0.0,2.6,102.0,3.7,'11111222,11111222,11111222' 
TCOON,ioos:station:TCOON:006:1,2008-09-08T13:00:00Z,27.8217,-97.2040,0.0,2.7,100.0,4.4,'11111222,11111222,11111222' 
TCOON,ioos:station:TCOON:006:1,2008-09-08T14:00:00Z,27.8217,-97.2040,0.0,3.4,97.0,4.8,'11111222,11111222,11111222' 
TCOON,ioos:station:TCOON:006:1,2008-09-08T15:00:00Z,27.8217,-97.2040,0.0,4.8,92.0,6.2,'11111222,11111222,11111222' 
TCOON,ioos:station:TCOON:006:1,2008-09-08T16:00:00Z,27.8217,-97.2040,0.0,3.2,89.0,4.6,'11111222,11111222,11111222' 
TCOON,ioos:station:TCOON:006:1,2008-09-08T17:00:00Z,27.8217,-97.2040,0.0,5.0,91.0,7.0,'11111222,11111222,11111222' 
TCOON,ioos:station:TCOON:006:1,2008-09-08T18:00:00Z,27.8217,-97.2040,0.0,4.3,92.0,5.7,'11111222,11111222,11111222' 
TCOON,ioos:station:TCOON:006:1,2008-09-08T19:00:00Z,27.8217,-97.2040,0.0,4.5,101.0,6.5,'11111222,11111222,11111222' 
TCOON,ioos:station:TCOON:006:1,2008-09-08T20:00:00Z,27.8217,-97.2040,0.0,3.8,100.0,7.0,'11111222,11111222,11111222' 
TCOON,ioos:station:TCOON:006:1,2008-09-08T21:00:00Z,27.8217,-97.2040,0.0,4.2,113.0,7.7,'11111222,11111222,11111222' 
TCOON,ioos:station:TCOON:006:1,2008-09-08T22:00:00Z,27.8217,-97.2040,0.0,6.5,112.0,9.3,'11111222,11111222,11111222' 
TCOON,ioos:station:TCOON:006:1,2008-09-08T23:00:00Z,27.8217,-97.2040,0.0,6.9,147.0,9.2,'11111222,11111222,11111222' 
TCOON,ioos:station:TCOON:006:1,2008-09-09T00:00:00Z,27.8217,-97.2040,0.0,5.9,117.0,7.4,'11111222,11111222,11111222' 
TCOON,ioos:station:TCOON:006:1,2008-09-09T01:00:00Z,27.8217,-97.2040,0.0,3.2,78.0,4.6,'11111222,11111222,11111222' 
TCOON,ioos:station:TCOON:006:1,2008-09-09T02:00:00Z,27.8217,-97.2040,0.0,3.1,87.0,4.3,'11111222,11111222,11111222' 
TCOON,ioos:station:TCOON:006:1,2008-09-09T03:00:00Z,27.8217,-97.2040,0.0,2.6,76.0,4.3,'11111222,11111222,11111222' 
TCOON,ioos:station:TCOON:006:1,2008-09-09T04:00:00Z,27.8217,-97.2040,0.0,2.3,115.0,3.1,'11111222,11111222,11111222' 
TCOON,ioos:station:TCOON:006:1,2008-09-09T05:00:00Z,27.8217,-97.2040,0.0,2.4,141.0,3.9,'11111222,11111222,11111222' 
TCOON,ioos:station:TCOON:006:1,2008-09-09T06:00:00Z,27.8217,-97.2040,0.0,2.0,103.0,3.0,'11111222,11111222,11111222' 
TCOON,ioos:station:TCOON:006:1,2008-09-09T07:00:00Z,27.8217,-97.2040,0.0,3.3,143.0,5.3,'11111222,11111222,11111222' 
TCOON,ioos:station:TCOON:006:1,2008-09-09T08:00:00Z,27.8217,-97.2040,0.0,1.8,164.0,3.2,'11111222,11111222,11111222' 
TCOON,ioos:station:TCOON:006:1,2008-09-09T09:00:00Z,27.8217,-97.2040,0.0,4.2,78.0,8.0,'11111222,11111222,11111222' 
TCOON,ioos:station:TCOON:006:1,2008-09-09T10:00:00Z,27.8217,-97.2040,0.0,1.9,50.0,2.9,'11111222,11111222,11111222' 
TCOON,ioos:station:TCOON:006:1,2008-09-09T11:00:00Z,27.8217,-97.2040,0.0,2.4,61.0,3.3,'11111222,11111222,11111222' 
TCOON,ioos:station:TCOON:006:1,2008-09-09T12:00:00Z,27.8217,-97.2040,0.0,2.6,60.0,3.2,'11111222,11111222,11111222' 
TCOON,ioos:station:TCOON:006:1,2008-09-09T13:00:00Z,27.8217,-97.2040,0.0,1.1,17.0,2.2,'11111222,11111222,11111222' 
TCOON,ioos:station:TCOON:006:1,2008-09-09T14:00:00Z,27.8217,-97.2040,0.0,2.8,56.0,3.7,'11111222,11111222,11111222' 
TCOON,ioos:station:TCOON:006:1,2008-09-09T15:00:00Z,27.8217,-97.2040,0.0,4.1,159.0,5.9,'11111222,11111222,11111222' 
TCOON,ioos:station:TCOON:006:1,2008-09-09T16:00:00Z,27.8217,-97.2040,0.0,2.5,115.0,3.7,'11111222,11111222,11111222' 
TCOON,ioos:station:TCOON:006:1,2008-09-09T17:00:00Z,27.8217,-97.2040,0.0,0.6,97.0,1.7,'11111222,11111222,11111222' 
TCOON,ioos:station:TCOON:006:1,2008-09-09T18:00:00Z,27.8217,-97.2040,0.0,2.5,79.0,3.3,'11111222,11111222,11111222' 
TCOON,ioos:station:TCOON:006:1,2008-09-09T19:00:00Z,27.8217,-97.2040,0.0,2.5,87.0,3.6,'11111222,11111222,11111222' 
TCOON,ioos:station:TCOON:006:1,2008-09-09T20:00:00Z,27.8217,-97.2040,0.0,3.1,73.0,5.0,'11111222,11111222,11111222' 
TCOON,ioos:station:TCOON:006:1,2008-09-09T21:00:00Z,27.8217,-97.2040,0.0,3.8,75.0,6.1,'11111222,11111222,11111222' 
TCOON,ioos:station:TCOON:006:1,2008-09-09T22:00:00Z,27.8217,-97.2040,0.0,3.8,87.0,5.4,'11111222,11111222,11111222' 
TCOON,ioos:station:TCOON:006:1,2008-09-09T23:00:00Z,27.8217,-97.2040,0.0,5.2,79.0,6.5,'11111222,11111222,11111222' 
TCOON,ioos:station:TCOON:006:1,2008-09-10T00:00:00Z,27.8217,-97.2040,0.0,5.6,74.0,7.5,'11111222,11111222,11111222' 
TCOON,ioos:station:TCOON:006:1,2008-09-10T01:00:00Z,27.8217,-97.2040,0.0,5.1,77.0,6.1,'11111222,11111222,11111222' 
TCOON,ioos:station:TCOON:006:1,2008-09-10T02:00:00Z,27.8217,-97.2040,0.0,4.4,73.0,6.6,'11111222,11111222,11111222' 
TCOON,ioos:station:TCOON:006:1,2008-09-10T03:00:00Z,27.8217,-97.2040,0.0,4.2,79.0,6.1,'11111222,11111222,11111222' 
TCOON,ioos:station:TCOON:006:1,2008-09-10T04:00:00Z,27.8217,-97.2040,0.0,3.9,92.0,6.1,'11111222,11111222,11111222' 
TCOON,ioos:station:TCOON:006:1,2008-09-10T05:00:00Z,27.8217,-97.2040,0.0,3.1,93.0,5.0,'11111222,11111222,11111222' 
TCOON,ioos:station:TCOON:006:1,2008-09-10T06:00:00Z,27.8217,-97.2040,0.0,3.4,107.0,5.7,'11111222,11111222,11111222' 
TCOON,ioos:station:TCOON:006:1,2008-09-10T07:00:00Z,27.8217,-97.2040,0.0,2.2,96.0,3.4,'11111222,11111222,11111222' 
TCOON,ioos:station:TCOON:006:1,2008-09-10T08:00:00Z,27.8217,-97.2040,0.0,2.5,99.0,3.9,'11111222,11111222,11111222' 
TCOON,ioos:station:TCOON:006:1,2008-09-10T09:00:00Z,27.8217,-97.2040,0.0,2.7,124.0,3.7,'11111222,11111222,11111222' 